Weather History for Rochelle, IL

Change the Weather History Date:

Sunday, October 16, 2011

  Actual Average (KRFD) Record (KRFD)
Temperature  
Mean Temperature 50 °F 52 °F  
Max Temperature 59 °F 63 °F 87 °F (1938)
Min Temperature 42 °F 41 °F 27 °F (1991)
Degree Days  
Heating Degree Days 14 14  
Month to date heating degree days 179  
Since 1 July heating degree days 310  
Cooling Degree Days 0 0  
Month to date cooling degree days 8  
Year to date cooling degree days 819  
Moisture  
Dew Point 37 °F    
Average Humidity 65    
Maximum Humidity 93    
Minimum Humidity 34    
Precipitation  
Precipitation 0.08 in 0.08 in 0.91 in (1914)
Month to date precipitation 1.39  
Year to date precipitation 30.40  
Snow  
Snow 0.00 in 0.00 in T in (1943)
Month to date snowfall 0.0  
Since 1 July snowfall 0.0  
Since 1 September snowfall 0.0  
Snow Depth -    
Sea Level Pressure  
Sea Level Pressure 29.83 in    
Wind  
Wind Speed 6 mph (WNW)    
Max Wind Speed 23 mph    
Max Gust Speed 31 mph    
Visibility 10 miles    
Events Rain    
T = Trace of Precipitation, MM = Missing Value Source: NWS Daily Summary

Daily Weather History Graph

Daily Weather History Graph

Search for Another Location

Airport:

Trip Planner

Search our weather history database for the weather conditions in past years. The results will help you decide how hot, cold, wet, or windy it might be!

Date:

Astronomy

Oct. 16, 2011 Rise Set
Actual Time 7:09 AM CDT 6:13 PM CDT
Civil Twilight 6:41 AM CDT 6:41 PM CDT
Nautical Twilight 6:09 AM CDT 7:14 PM CDT
Astronomical Twilight 5:36 AM CDT 7:46 PM CDT
Moon 8:55 PM CDT (10/16) 11:30 AM CDT (10/16)
Length of Visible Light 12h 00m
Length of Day
11h 04m
Waning Gibbous, 82% of the Moon is Illuminated
Oct 16
Waning Gibbous
Oct 19
Last Quarter
Oct 26
New
Nov 2
First Quarter
Nov 10
Full

Hourly Weather History & Observations

Time (CDT) Temp. Windchill Dew Point Humidity Pressure Visibility Wind Dir Wind Speed Gust Speed Precip Events Conditions
12:35 AM 46.4 °F 43.5 °F 35.6 °F 66% 29.86 in 10.0 mi South 5.8 mph - N/A   Clear
12:55 AM 46.4 °F 44.3 °F 35.6 °F 66% 29.86 in 10.0 mi South 4.6 mph - N/A   Clear
1:15 AM 46.4 °F - 35.6 °F 66% 29.86 in 10.0 mi Calm Calm - N/A   Clear
1:35 AM 44.6 °F - 35.6 °F 71% 29.85 in 10.0 mi Calm Calm - N/A   Clear
1:55 AM 44.6 °F 43.1 °F 37.4 °F 76% 29.84 in 10.0 mi SSE 3.5 mph - N/A   Clear
2:15 AM 46.4 °F 45.2 °F 35.6 °F 66% 29.84 in 10.0 mi SE 3.5 mph - N/A   Clear
2:35 AM 42.8 °F 41.1 °F 35.6 °F 76% 29.82 in 10.0 mi SE 3.5 mph - N/A   Clear
2:55 AM 42.8 °F 40.1 °F 35.6 °F 76% 29.81 in 10.0 mi ESE 4.6 mph - N/A   Clear
3:15 AM 44.6 °F 42.2 °F 35.6 °F 71% 29.81 in 10.0 mi ENE 4.6 mph - N/A   Scattered Clouds
3:55 AM 44.6 °F 43.1 °F 37.4 °F 76% 29.81 in 10.0 mi NNE 3.5 mph - N/A   Clear
4:15 AM 46.4 °F 45.2 °F 37.4 °F 71% 29.79 in 10.0 mi East 3.5 mph - N/A   Clear
4:35 AM 46.4 °F 44.3 °F 39.2 °F 76% 29.80 in 10.0 mi NNE 4.6 mph - N/A   Clear
4:55 AM 46.4 °F 44.3 °F 39.2 °F 76% 29.79 in 10.0 mi ENE 4.6 mph - N/A   Clear
5:15 AM 46.4 °F - 37.4 °F 71% 29.80 in 10.0 mi Calm Calm - N/A   Clear
5:35 AM 46.4 °F - 39.2 °F 76% 29.81 in 10.0 mi Calm Calm - N/A Rain Light Rain
5:55 AM 46.4 °F 45.2 °F 41.0 °F 81% 29.80 in 10.0 mi NNE 3.5 mph - N/A Rain Light Rain
6:35 AM 46.4 °F - 42.8 °F 87% 29.81 in 10.0 mi Calm Calm - 0.02 in Rain Rain
6:55 AM 44.6 °F 43.1 °F 42.8 °F 93% 29.78 in 10.0 mi SE 3.5 mph - 0.03 in Rain Light Rain
7:15 AM 44.6 °F - 42.8 °F 93% 29.79 in 7.0 mi Calm Calm - 0.01 in Rain Rain
7:35 AM 44.6 °F 41.4 °F 42.8 °F 93% 29.79 in 10.0 mi North 5.8 mph - 0.02 in Rain Light Rain
7:55 AM 46.4 °F - 42.8 °F 87% 29.75 in 7.0 mi Calm Calm - 0.03 in Rain Light Rain
8:15 AM 46.4 °F 42.9 °F 44.6 °F 93% 29.80 in 10.0 mi NNW 6.9 mph - 0.01 in Rain Light Rain
8:35 AM 46.4 °F 43.5 °F 42.8 °F 87% 29.85 in 10.0 mi NW 5.8 mph - 0.01 in Rain Light Rain
8:55 AM 46.4 °F - 42.8 °F 87% 29.83 in 7.0 mi Calm Calm - 0.02 in Rain Light Rain
9:15 AM 46.4 °F 45.2 °F 42.8 °F 87% 29.83 in 10.0 mi NNW 3.5 mph - N/A   Scattered Clouds
9:35 AM 46.4 °F - 42.8 °F 87% 29.82 in 10.0 mi Calm Calm - N/A   Scattered Clouds
9:55 AM 50.0 °F - 44.6 °F 82% 29.82 in 10.0 mi Calm Calm - N/A   Clear
10:15 AM 50.0 °F - 42.8 °F 76% 29.85 in 10.0 mi WNW 5.8 mph - N/A   Clear
10:35 AM 51.8 °F - 44.6 °F 76% 29.81 in 10.0 mi Calm Calm - N/A   Unknown
10:55 AM 51.8 °F - 44.6 °F 76% 29.83 in 10.0 mi WSW 5.8 mph - N/A   Unknown
11:15 AM 51.8 °F - 44.6 °F 76% 29.84 in 10.0 mi West 4.6 mph - N/A   Clear
11:35 AM 53.6 °F - 42.8 °F 67% 29.83 in 10.0 mi NW 8.1 mph - N/A   Clear
11:55 AM 53.6 °F - 42.8 °F 67% 29.85 in 10.0 mi West 12.7 mph 17.3 mph N/A   Clear
12:35 PM 53.6 °F - 41.0 °F 62% 29.85 in 10.0 mi WNW 13.8 mph 19.6 mph N/A   Clear
12:55 PM 53.6 °F - 41.0 °F 62% 29.84 in 10.0 mi WNW 13.8 mph - N/A   Clear
1:15 PM 53.6 °F - 39.2 °F 58% 29.83 in 10.0 mi WNW 13.8 mph 19.6 mph N/A   Clear
1:35 PM 53.6 °F - 39.2 °F 58% 29.83 in 10.0 mi WNW 17.3 mph - N/A   Clear
1:55 PM 53.6 °F - 39.2 °F 58% 29.83 in 10.0 mi WNW 16.1 mph 20.7 mph N/A   Clear
2:15 PM 55.4 °F - 37.4 °F 51% 29.83 in 10.0 mi WNW 15.0 mph 24.2 mph N/A   Clear
2:35 PM 59.0 °F - 35.6 °F 42% 29.83 in 10.0 mi WNW 19.6 mph 26.5 mph N/A   Clear
2:55 PM 59.0 °F - 32.0 °F 36% 29.83 in 10.0 mi WNW 17.3 mph 28.8 mph N/A   Clear
3:15 PM 59.0 °F - 33.8 °F 39% 29.84 in 10.0 mi WNW 18.4 mph 26.5 mph N/A   Clear
3:35 PM 57.2 °F - 33.8 °F 41% 29.84 in 10.0 mi West 20.7 mph 26.5 mph N/A   Clear
3:55 PM 57.2 °F - 32.0 °F 38% 29.85 in 10.0 mi WNW 19.6 mph 27.6 mph N/A   Clear
4:15 PM 59.0 °F - 30.2 °F 34% 29.85 in 10.0 mi WNW 23.0 mph 28.8 mph N/A   Clear
4:35 PM 59.0 °F - 30.2 °F 34% 29.85 in 10.0 mi WNW 21.9 mph 31.1 mph N/A   Scattered Clouds
4:55 PM 57.2 °F - 30.2 °F 36% 29.85 in 10.0 mi West 17.3 mph - N/A   Scattered Clouds
5:15 PM 57.2 °F - 32.0 °F 38% 29.84 in 10.0 mi West 13.8 mph 23.0 mph N/A   Clear
5:35 PM 55.4 °F - 32.0 °F 41% 29.84 in 10.0 mi West 12.7 mph 18.4 mph N/A   Clear
5:55 PM 55.4 °F - 32.0 °F 41% 29.84 in 10.0 mi West 10.4 mph - N/A   Clear
6:15 PM 51.8 °F - 32.0 °F 47% 29.84 in 10.0 mi West 9.2 mph - N/A   Clear
6:35 PM 51.8 °F - 32.0 °F 47% 29.85 in 10.0 mi West 8.1 mph - N/A   Clear
6:55 PM 48.2 °F - 33.8 °F 58% 29.85 in 10.0 mi West 8.1 mph - N/A   Clear
7:15 PM 48.2 °F - 33.8 °F 58% 29.86 in 10.0 mi West 8.1 mph - N/A   Clear
7:35 PM 46.4 °F 42.9 °F 32.0 °F 57% 29.86 in 10.0 mi West 6.9 mph - N/A   Clear
7:55 PM 44.6 °F 41.4 °F 32.0 °F 61% 29.86 in 10.0 mi West 5.8 mph - N/A   Clear
8:15 PM 42.8 °F 41.1 °F 32.0 °F 66% 29.87 in 10.0 mi West 3.5 mph - N/A   Clear
8:35 PM 42.8 °F 38.0 °F 32.0 °F 66% 29.88 in 10.0 mi West 8.1 mph - N/A   Clear
8:55 PM 44.6 °F 39.7 °F 32.0 °F 61% 29.88 in 10.0 mi West 9.2 mph - N/A   Clear
9:15 PM 44.6 °F 40.2 °F 32.0 °F 61% 29.88 in 10.0 mi West 8.1 mph - N/A   Clear
9:35 PM 42.8 °F 38.6 °F 32.0 °F 66% 29.89 in 10.0 mi West 6.9 mph - N/A   Clear
9:55 PM 41.0 °F 37.1 °F 32.0 °F 70% 29.89 in 10.0 mi West 5.8 mph - N/A   Clear
10:15 PM 39.2 °F 33.6 °F 32.0 °F 75% 29.89 in 10.0 mi WSW 8.1 mph - N/A   Clear
10:35 PM 37.4 °F 32.1 °F 32.0 °F 81% 29.89 in 10.0 mi WSW 6.9 mph - N/A   Clear
10:55 PM 37.4 °F 32.8 °F 32.0 °F 81% 29.89 in 10.0 mi WSW 5.8 mph - N/A   Clear
11:15 PM 37.4 °F 31.4 °F 32.0 °F 81% 29.90 in 10.0 mi WSW 8.1 mph - N/A   Clear
11:35 PM 37.4 °F 31.4 °F 32.0 °F 81% 29.89 in 10.0 mi WSW 8.1 mph - N/A   Clear
11:55 PM 37.4 °F 32.1 °F 32.0 °F 81% 29.90 in 10.0 mi WSW 6.9 mph - N/A   Clear